SCP
0 0 0 0 0 0 0 0 0 0 0 0 0 0 0 0 0 0 0 0 0 0
0 0 0 0 0 0 0 0 0 0 0 0 0 0 0 0 0 0 0 0 0 0
0 0 0 0 0 0 0 0 0 0 0 0 0 0 0 0 0 0 0 0 0 0
0 0 0 0 0 0 0 0 0 0 0 0 0 0 0 0 0 0 0 0 0 0
0 0 0 0 0 0 0 0 0 0 0 0 0 0 0 0 0 0 0 0 0 0
0 0 0 0 0 0 0 0 0 0 0 0 0 0 0 0 0 0 0 0 0 0
0 0 0 0 0 0 0 0 0 0 0 0 0 0 0 0 0 0 0 0 0 0
0 0 0 0 0 0 0 0 0 0 0 0 0 0 0 0 0 0 0 0 0 0
0 0 0 0 0 0 0 0 0 0 0 0 0 0 0 0 0 0 0 0 0 0
0 0 0 0 0 0 0 0 0 0 0 0 0 0 0 0 0 0 0 0 0 0
0 0 0 0 0 0 0 0 0 0 0 0 0 0 0 0 0 0 0 0 0 0
0 0 0 0 0 0 0 0 0 0 0 0 0 0 0 0 0 0 0 0 0 0
0 0 0 0 0 0 0 0 0 0 0 0 0 0 0 0 0 0 0 0 0 0
0 0 0 0 0 0 0 0 0 0 0 0 0 0 0 0 0 0 0 0 0 0
Wind_Speed_500mb
8 5 5 9 12 16 19 22 25 28 32 36 41 44 50 58 64 69 75 78 80 83
13 8 4 6 10 14 19 23 26 30 34 38 42 47 51 59 62 66 72 76 79 83
11 9 9 11 14 17 21 25 29 33 37 40 44 49 54 60 63 67 70 75 79 81
11 12 14 16 18 21 24 26 30 33 36 39 42 45 49 53 57 60 64 67 73 77
12 13 15 18 21 24 27 31 35 39 44 48 51 55 58 61 64 66 70 70 71 73
14 17 21 24 28 33 38 44 51 56 57 61 64 65 66 68 70 71 74 76 78 77
20 24 30 35 41 47 51 55 57 59 63 65 65 67 70 72 75 76 77 77 78 80
26 31 35 40 43 46 51 54 58 60 61 64 68 69 72 74 76 78 79 77 75 76
32 37 42 47 52 55 57 59 61 63 69 73 72 74 76 79 83 81 80 82 81 78
39 45 51 56 59 61 64 67 69 72 76 79 81 82 84 81 82 83 84 81 79 79
48 53 57 58 60 64 68 71 75 77 79 83 84 83 86 87 87 84 82 78 77 79
55 58 60 63 65 67 73 76 79 80 84 86 88 87 88 88 89 90 87 79 74 72
55 59 64 68 72 75 78 83 86 89 89 91 93 93 92 88 87 91 88 83 78 67
56 63 67 74 76 81 85 88 90 93 94 94 92 90 92 87 82 80 79 75 69 63
Wind_Direction_500mb
133 168 236 261 272 278 279 282 281 280 281 284 285 284 284 284 284 284 283 281 277 275
88 79 35 328 308 299 295 294 297 296 294 291 290 290 288 288 288 286 286 285 285 283
55 33 4 343 328 318 312 309 304 301 300 298 294 292 290 290 291 290 290 290 289 288
39 17 3 349 341 335 328 324 322 320 318 315 312 308 303 300 297 293 292 290 290 290
27 9 352 343 340 338 337 336 333 330 328 325 322 318 314 310 305 302 299 297 293 291
7 354 344 341 337 334 330 328 325 321 318 316 314 311 309 308 307 306 303 302 301 299
355 348 341 336 331 326 322 320 317 315 313 313 312 311 310 307 305 303 302 301 301 300
343 338 332 326 323 320 319 317 316 314 313 314 315 315 313 311 307 305 302 299 298 298
336 332 328 325 323 320 319 319 318 317 317 317 315 314 314 313 310 308 305 303 301 298
327 325 323 321 318 317 316 315 313 313 313 313 314 315 314 313 310 308 306 304 302 299
322 320 318 316 315 315 314 314 314 313 313 312 312 313 312 311 310 307 305 302 299 297
318 317 316 314 315 314 312 312 311 311 310 310 309 310 309 310 307 305 304 301 297 295
316 315 315 315 314 313 310 308 308 308 308 308 308 309 310 310 307 305 304 302 300 295
311 311 311 310 310 309 308 305 305 304 304 304 305 306 307 308 305 301 301 300 301 300
Wind_Speed_850mb
8 5 5 9 12 16 19 22 25 28 32 36 41 44 50 58 64 69 75 78 80 83
13 8 4 6 10 14 19 23 26 30 34 38 42 47 51 59 62 66 72 76 79 83
11 9 9 11 14 17 21 25 29 33 37 40 44 49 54 60 63 67 70 75 79 81
11 12 14 16 18 21 24 26 30 33 36 39 42 45 49 53 57 60 64 67 73 77
12 13 15 18 21 24 27 31 35 39 44 48 51 55 58 61 64 66 70 70 71 73
14 17 21 24 28 33 38 44 51 56 57 61 64 65 66 68 70 71 74 76 78 77
20 24 30 35 41 47 51 55 57 59 63 65 65 67 70 72 75 76 77 77 78 80
26 31 35 40 43 46 51 54 58 60 61 64 68 69 72 74 76 78 79 77 75 76
32 37 42 47 52 55 57 59 61 63 69 73 72 74 76 79 83 81 80 82 81 78
39 45 51 56 59 61 64 67 69 72 76 79 81 82 84 81 82 83 84 81 79 79
48 53 57 58 60 64 68 71 75 77 79 83 84 83 86 87 87 84 82 78 77 79
55 58 60 63 65 67 73 76 79 80 84 86 88 87 88 88 89 90 87 79 74 72
55 59 64 68 72 75 78 83 86 89 89 91 93 93 92 88 87 91 88 83 78 67
56 63 67 74 76 81 85 88 90 93 94 94 92 90 92 87 82 80 79 75 69 63
Wind_Direction_850mb
133 168 236 261 272 278 279 282 281 280 281 284 285 284 284 284 284 284 283 281 277 275
88 79 35 328 308 299 295 294 297 296 294 291 290 290 288 288 288 286 286 285 285 283
55 33 4 343 328 318 312 309 304 301 300 298 294 292 290 290 291 290 290 290 289 288
39 17 3 349 341 335 328 324 322 320 318 315 312 308 303 300 297 293 292 290 290 290
27 9 352 343 340 338 337 336 333 330 328 325 322 318 314 310 305 302 299 297 293 291
7 354 344 341 337 334 330 328 325 321 318 316 314 311 309 308 307 306 303 302 301 299
355 348 341 336 331 326 322 320 317 315 313 313 312 311 310 307 305 303 302 301 301 300
343 338 332 326 323 320 319 317 316 314 313 314 315 315 313 311 307 305 302 299 298 298
336 332 328 325 323 320 319 319 318 317 317 317 315 314 314 313 310 308 305 303 301 298
327 325 323 321 318 317 316 315 313 313 313 313 314 315 314 313 310 308 306 304 302 299
322 320 318 316 315 315 314 314 314 313 313 312 312 313 312 311 310 307 305 302 299 297
318 317 316 314 315 314 312 312 311 311 310 310 309 310 309 310 307 305 304 301 297 295
316 315 315 315 314 313 310 308 308 308 308 308 308 309 310 310 307 305 304 302 300 295
311 311 311 310 310 309 308 305 305 304 304 304 305 306 307 308 305 301 301 300 301 300